Total_Precipitation_Accumulation
2.57 2.66 2.60 2.69 2.92 2.91 3.04 3.29 3.40 3.36 3.32 3.40 3.47 3.47 3.41 3.27 2.98 2.71 2.52 2.51 2.54 2.68 3.00 2.98 3.40 3.46 3.57 3.50 3.52 3.67 3.64 3.44 3.65 3.67 3.21 2.51 2.00 1.93 1.80 1.81 1.94 1.87 2.05
2.69 2.86 2.91 2.83 2.91 2.96 3.08 3.34 3.48 3.58 3.53 3.75 4.00 3.99 3.91 3.53 3.28 2.95 2.79 2.66 2.80 2.81 2.87 3.36 3.53 3.65 3.73 3.59 3.58 3.64 3.54 3.20 3.52 3.72 3.65 3.00 2.52 1.99 1.47 1.69 1.77 1.89 2.35
2.07 2.64 2.98 3.08 2.85 2.76 2.91 3.10 3.31 3.49 3.62 3.82 4.04 3.97 4.07 3.80 3.53 3.25 3.06 2.79 2.77 2.75 2.92 3.23 3.56 3.62 3.43 3.49 3.49 3.50 3.49 3.33 3.29 3.46 3.79 3.35 2.82 2.30 1.71 1.59 1.75 2.02 2.30
1.89 2.31 2.58 2.53 2.53 2.53 2.55 2.78 3.02 3.24 3.45 3.69 3.72 3.67 3.63 3.51 3.41 3.27 2.89 2.71 2.61 2.61 2.68 2.78 3.06 3.28 3.24 3.34 3.07 3.21 3.33 3.40 3.18 3.24 3.35 3.23 2.99 2.77 2.25 1.81 1.69 1.95 2.11
1.65 1.93 2.07 2.07 2.10 2.15 2.37 2.75 3.03 3.17 3.20 3.24 3.24 3.39 3.28 3.31 3.34 3.16 2.95 2.87 2.81 2.66 2.47 2.56 2.89 3.02 3.06 2.93 2.85 3.04 3.08 3.03 2.96 3.07 3.05 3.12 3.07 2.79 2.63 2.28 2.07 1.90 1.67
1.40 1.70 1.96 2.10 2.11 2.21 2.49 2.79 3.00 3.11 3.03 2.95 2.96 3.07 3.08 3.20 3.18 3.03 2.97 2.75 2.60 2.43 2.30 2.35 2.67 2.78 2.81 2.80 2.80 2.80 2.75 2.78 2.79 2.80 2.87 3.05 2.99 2.85 2.87 2.45 2.21 2.07 1.49
1.50 1.72 1.94 1.99 2.09 2.24 2.32 2.51 2.75 2.88 2.76 2.63 2.64 2.66 2.76 2.82 2.73 2.70 2.67 2.49 2.25 2.06 2.06 2.06 2.19 2.30 2.43 2.52 2.70 2.72 2.64 2.64 2.66 2.61 2.62 2.74 2.74 2.81 2.84 2.67 2.31 2.13 1.65
1.78 1.90 1.97 2.00 2.00 2.08 2.12 2.15 2.29 2.38 2.31 2.29 2.33 2.33 2.35 2.33 2.26 2.41 2.33 2.19 1.99 1.89 1.96 2.00 1.93 1.87 1.93 2.08 2.48 2.58 2.59 2.62 2.53 2.30 2.46 2.45 2.31 2.43 2.54 2.71 2.73 2.30 1.96
1.41 1.69 1.78 1.76 1.75 1.68 1.65 1.71 1.80 1.76 1.72 1.71 1.80 1.81 1.86 1.88 1.90 1.97 1.95 1.88 1.81 1.71 1.71 1.72 1.77 1.73 1.69 1.77 1.99 2.19 2.34 2.45 2.36 2.30 2.37 2.24 2.12 2.12 2.19 2.46 2.70 2.67 2.33
1.14 1.22 1.40 1.50 1.49 1.49 1.48 1.51 1.51 1.53 1.52 1.47 1.46 1.44 1.52 1.55 1.60 1.58 1.50 1.54 1.56 1.55 1.52 1.55 1.56 1.59 1.61 1.68 1.86 1.95 2.13 2.23 2.22 2.21 2.22 2.20 2.09 2.14 2.07 2.13 2.39 2.59 2.67
0.87 0.90 1.00 1.16 1.31 1.39 1.36 1.36 1.37 1.38 1.41 1.40 1.40 1.37 1.38 1.47 1.49 1.44 1.41 1.44 1.44 1.40 1.38 1.42 1.42 1.38 1.43 1.58 1.68 1.67 1.84 1.94 1.99 1.93 1.93 1.96 2.13 2.20 2.02 2.04 2.17 2.40 2.69
0.70 0.74 0.84 1.00 1.13 1.15 1.12 1.12 1.14 1.18 1.22 1.28 1.29 1.27 1.35 1.41 1.36 1.31 1.36 1.47 1.47 1.41 1.44 1.55 1.55 1.38 1.40 1.54 1.49 1.38 1.57 1.79 1.83 1.92 2.06 2.02 2.19 2.24 2.07 2.11 2.18 2.44 2.72
0.69 0.74 0.83 0.98 1.11 1.12 1.12 1.13 1.17 1.16 1.20 1.25 1.27 1.26 1.24 1.29 1.31 1.33 1.35 1.35 1.37 1.40 1.46 1.55 1.59 1.54 1.54 1.51 1.43 1.41 1.44 1.55 1.65 1.82 2.02 2.10 2.33 2.34 2.31 2.26 2.30 2.47 2.66
0.76 0.78 0.84 0.99 1.12 1.17 1.28 1.33 1.35 1.26 1.25 1.21 1.15 1.15 1.13 1.17 1.24 1.27 1.25 1.22 1.27 1.35 1.33 1.34 1.45 1.54 1.60 1.58 1.53 1.54 1.53 1.53 1.52 1.52 1.50 1.53 1.72 1.89 2.18 2.21 2.21 2.31 2.56
0.74 0.78 0.87 0.96 1.03 1.15 1.28 1.28 1.32 1.27 1.30 1.31 1.23 1.15 1.22 1.33 1.27 1.16 1.20 1.22 1.23 1.24 1.27 1.24 1.30 1.41 1.43 1.38 1.45 1.48 1.44 1.52 1.50 1.43 1.33 1.26 1.29 1.37 1.48 1.42 1.69 1.95 2.16
0.67 0.73 0.86 1.07 0.96 1.02 1.15 1.28 1.37 1.38 1.40 1.45 1.36 1.31 1.34 1.29 1.22 1.13 1.16 1.23 1.24 1.23 1.23 1.23 1.27 1.31 1.19 1.32 1.43 1.42 1.39 1.33 1.32 1.34 1.29 1.22 1.13 1.01 0.98 1.02 1.18 1.42 1.67
0.61 0.66 0.75 0.93 1.05 1.14 1.23 1.31 1.33 1.33 1.41 1.44 1.47 1.57 1.56 1.45 1.33 1.24 1.22 1.23 1.28 1.32 1.33 1.35 1.36 1.23 1.25 1.35 1.34 1.38 1.35 1.32 1.20 1.16 1.15 0.96 0.86 0.90 0.84 0.97 1.04 1.02 1.05
0.65 0.69 0.72 0.74 0.78 0.90 1.06 1.25 1.35 1.33 1.40 1.50 1.50 1.54 1.55 1.46 1.41 1.37 1.29 1.35 1.42 1.38 1.35 1.40 1.47 1.45 1.33 1.30 1.19 1.22 1.18 1.18 1.13 1.07 1.02 1.00 0.98 0.99 1.04 1.03 1.02 0.92 0.85
0.71 0.77 0.79 0.78 0.79 0.82 0.94 1.18 1.29 1.34 1.40 1.41 1.43 1.43 1.47 1.45 1.42 1.41 1.43 1.43 1.44 1.33 1.24 1.23 1.31 1.38 1.39 1.28 1.07 1.02 0.89 0.96 1.00 1.02 1.02 1.00 1.00 1.10 1.08 1.04 1.05 1.03 0.96
0.71 0.79 0.85 0.91 0.92 0.94 0.98 1.10 1.19 1.30 1.36 1.38 1.42 1.49 1.57 1.58 1.50 1.48 1.55 1.53 1.50 1.41 1.32 1.25 1.28 1.30 1.31 1.24 1.05 0.98 0.90 0.99 1.04 1.16 1.16 1.08 0.99 1.07 1.09 1.04 1.11 1.13 1.12
0.67 0.72 0.89 1.14 1.27 1.25 1.28 1.34 1.34 1.42 1.45 1.44 1.48 1.55 1.62 1.62 1.65 1.75 1.80 1.75 1.68 1.63 1.56 1.42 1.42 1.44 1.41 1.32 1.07 0.99 1.01 1.15 1.22 1.26 1.30 1.26 1.12 1.01 1.08 1.10 1.12 1.12 1.16
0.62 0.61 0.83 1.13 1.35 1.50 1.60 1.65 1.65 1.53 1.59 1.55 1.58 1.66 1.74 1.69 1.69 1.83 1.90 1.96 1.99 1.91 1.78 1.73 1.68 1.65 1.60 1.39 1.21 1.10 1.09 1.17 1.22 1.23 1.23 1.25 1.11 0.95 0.95 0.98 1.00 0.98 0.92
0.56 0.60 0.76 1.01 1.22 1.34 1.51 1.70 1.73 1.71 1.68 1.67 1.73 1.77 1.88 2.00 2.06 2.10 2.07 2.11 2.13 2.05 1.95 1.89 1.82 1.82 1.85 1.67 1.35 1.17 1.08 1.08 1.06 1.09 1.13 1.10 1.06 0.96 0.89 0.91 0.90 0.84 0.76
0.59 0.68 0.84 1.03 1.22 1.34 1.51 1.64 1.63 1.60 1.70 1.86 1.92 1.90 1.99 2.08 2.24 2.39 2.28 2.21 2.12 2.03 1.96 1.95 1.93 1.96 2.00 1.88 1.56 1.29 1.15 1.12 1.11 1.10 1.07 1.02 1.00 0.98 0.94 0.93 0.85 0.82 0.89
0.70 0.79 0.94 1.04 1.18 1.35 1.50 1.63 1.66 1.71 1.80 1.83 1.83 1.90 2.00 2.13 2.23 2.25 2.24 2.18 2.11 2.02 2.02 2.01 1.96 1.94 1.92 1.85 1.70 1.50 1.40 1.37 1.35 1.30 1.18 1.12 1.10 1.13 1.16 1.14 1.12 1.14 1.16
0.73 0.76 0.87 0.93 1.00 1.16 1.32 1.42 1.60 1.83 1.97 1.95 1.90 1.86 1.85 1.95 2.03 2.06 2.05 1.94 1.86 1.81 1.73 1.74 1.70 1.66 1.67 1.68 1.56 1.40 1.40 1.41 1.40 1.34 1.32 1.33 1.31 1.35 1.38 1.40 1.38 1.34 1.34